contact:dominique.lefevre@mio.osupytheas.fr, maurice.libes@osupytheas.fr, didier.mallarino@osupytheas.fr
Project:EMSO http://www.emso-fr.org/EMSO-France
Depth: 2436.0 m
Title:EMSO Ligure Ouest : Data MII capteur AQUADOPP
Date,Latitude,Longitude,X_East,Y_North,Z_Up,Amplitude_X,Amplitude_Y,Amplitude_Z,Batterie,SoundSpeed,Heading,Pitch,Roll,Pressure,TIS,Speed,Direction
, degrees North, degrees East, m.s-1, m.s-1,m.s-1, 1, 1, 1, Volt, m.s-1, degree, degree, degree, dbar, degree_C, m.s-1, degree
2023-04-14T00:04:03,42.805,6.029,0.027,-0.018,-0.036,103.0,103.0,101.0,13.3,1505.2,342.5,-0.8,1.8,2471.355,13.28,0.032,123.7
2023-04-14T00:07:03,42.805,6.029,0.019,-0.006,-0.02,103.0,103.0,101.0,13.3,1505.2,321.0,-0.8,1.8,2471.37,13.28,0.019,107.5
2023-04-14T00:10:03,42.805,6.029,0.035,-0.006,0.008,103.0,102.0,101.0,13.3,1505.2,325.3,-0.7,1.8,2471.375,13.28,0.035,99.7
2023-04-14T00:13:03,42.805,6.029,0.025,-0.014,-0.028,103.0,102.0,102.0,13.4,1505.2,338.3,-0.8,1.8,2471.363,13.28,0.028,119.3
2023-04-14T00:16:03,42.805,6.029,0.037,-0.006,-0.003,104.0,102.0,99.0,13.4,1505.2,334.9,-0.8,1.8,2471.329,13.29,0.037,99.2
2023-04-14T00:19:03,42.805,6.029,0.042,-0.011,0.003,103.0,103.0,100.0,13.4,1505.2,324.1,-0.8,1.9,2471.389,13.29,0.043,104.7
2023-04-14T00:22:03,42.805,6.029,0.031,-0.039,-0.016,103.0,102.0,101.0,13.4,1505.2,339.0,-0.8,1.8,2471.32,13.29,0.049,141.5
2023-04-14T00:25:03,42.805,6.029,0.023,-0.007,-0.007,103.0,103.0,100.0,13.4,1505.2,320.8,-0.7,1.8,2471.333,13.29,0.024,106.9
2023-04-14T00:28:03,42.805,6.029,0.052,0.012,0.015,103.0,103.0,101.0,13.4,1505.2,323.1,-0.8,1.8,2471.363,13.29,0.053,77.0
2023-04-14T00:31:03,42.805,6.029,0.026,-0.018,-0.032,103.0,103.0,101.0,13.4,1505.2,329.3,-0.7,1.8,2471.338,13.29,0.031,124.7
2023-04-14T00:34:03,42.805,6.029,0.042,-0.022,-0.012,103.0,101.0,101.0,13.3,1505.2,328.1,-0.8,1.8,2471.336,13.29,0.047,117.6
2023-04-14T00:37:03,42.805,6.029,0.025,-0.026,-0.047,104.0,101.0,101.0,13.3,1505.2,336.9,-0.8,1.8,2471.309,13.29,0.036,136.1
2023-04-14T00:40:03,42.805,6.029,0.03,-0.017,-0.024,102.0,104.0,101.0,13.4,1505.2,337.5,-0.8,1.8,2471.346,13.29,0.034,119.5
2023-04-14T00:43:03,42.805,6.029,0.036,-0.012,0.004,105.0,103.0,100.0,13.3,1505.2,338.3,-0.8,1.8,2471.358,13.29,0.037,108.4
2023-04-14T00:46:03,42.805,6.029,0.016,-0.025,-0.039,103.0,102.0,102.0,13.4,1505.2,343.3,-0.8,1.8,2471.339,13.29,0.029,147.4
2023-04-14T00:49:03,42.805,6.029,0.017,0.002,-0.018,102.0,104.0,100.0,13.3,1505.2,336.4,-0.8,1.8,2471.369,13.29,0.017,83.3
2023-04-14T00:52:03,42.805,6.029,0.048,-0.008,-0.026,103.0,102.0,101.0,13.4,1505.2,323.2,-0.8,1.8,2471.327,13.29,0.048,99.5
2023-04-14T00:55:03,42.805,6.029,0.054,-0.014,-0.008,103.0,104.0,100.0,13.3,1505.2,323.6,-0.7,1.9,2471.326,13.29,0.055,104.5
2023-04-14T00:58:03,42.805,6.029,0.046,-0.015,0.003,104.0,102.0,102.0,13.3,1505.2,327.9,-0.7,1.8,2471.345,13.29,0.048,108.1
2023-04-14T01:04:03,42.805,6.029,0.049,-0.03,-0.004,103.0,105.0,102.0,13.3,1505.2,321.9,-0.7,1.8,2471.42,13.28,0.057,121.5
2023-04-14T01:07:03,42.805,6.029,0.037,-0.003,-0.004,104.0,104.0,101.0,13.4,1505.2,319.2,-0.8,1.8,2471.404,13.28,0.037,94.6
2023-04-14T01:10:03,42.805,6.029,0.032,-0.01,-0.015,102.0,103.0,101.0,13.4,1505.2,316.8,-0.8,1.8,2471.375,13.28,0.033,107.4
2023-04-14T01:13:03,42.805,6.029,0.026,-0.044,-0.058,103.0,103.0,101.0,13.4,1505.2,337.0,-0.7,1.8,2471.367,13.29,0.051,149.4
2023-04-14T01:16:03,42.805,6.029,0.045,-0.019,-0.019,101.0,103.0,102.0,13.4,1505.2,318.5,-0.8,1.8,2471.361,13.29,0.048,112.9
2023-04-14T01:19:03,42.805,6.029,0.028,-0.029,-0.01,102.0,102.0,101.0,13.4,1505.2,342.8,-0.8,1.8,2471.351,13.29,0.04,136.0
2023-04-14T01:22:03,42.805,6.029,0.041,-0.038,-0.02,104.0,102.0,100.0,13.4,1505.2,324.2,-0.8,1.8,2471.32,13.29,0.055,132.8
2023-04-14T01:25:03,42.805,6.029,0.018,-0.009,-0.007,104.0,103.0,101.0,13.3,1505.2,344.4,-0.8,1.8,2471.362,13.29,0.02,116.6
2023-04-14T01:28:03,42.805,6.029,0.04,-0.018,-0.018,104.0,102.0,102.0,13.4,1505.2,338.2,-0.8,1.8,2471.344,13.29,0.043,114.2
2023-04-14T01:31:03,42.805,6.029,0.008,-0.015,-0.02,104.0,103.0,101.0,13.3,1505.2,323.9,-0.8,1.8,2471.333,13.29,0.017,151.9
2023-04-14T01:34:03,42.805,6.029,0.027,-0.004,-0.01,104.0,104.0,101.0,13.4,1505.2,325.4,-0.8,1.8,2471.369,13.29,0.027,98.4
2023-04-14T01:37:03,42.805,6.029,0.014,-0.015,-0.05,104.0,102.0,101.0,13.3,1505.2,326.8,-0.7,1.8,2471.306,13.29,0.02,137.0
2023-04-14T01:40:03,42.805,6.029,0.018,0.015,0.0,104.0,103.0,101.0,13.4,1505.2,323.4,-0.8,1.8,2471.385,13.29,0.023,50.2
2023-04-14T01:43:03,42.805,6.029,0.015,-0.021,-0.032,104.0,102.0,101.0,13.4,1505.2,334.6,-0.8,1.8,2471.328,13.29,0.025,144.5
2023-04-14T01:46:03,42.805,6.029,0.016,-0.014,-0.017,104.0,103.0,101.0,13.4,1505.2,326.8,-0.8,1.8,2471.359,13.29,0.021,131.2
2023-04-14T01:49:03,42.805,6.029,0.058,0.003,-0.003,103.0,102.0,101.0,13.4,1505.2,319.3,-0.8,1.8,2471.319,13.29,0.058,87.0
2023-04-14T01:52:03,42.805,6.029,0.007,0.001,-0.032,103.0,102.0,100.0,13.4,1505.2,328.2,-0.8,1.8,2471.333,13.29,0.007,81.9
2023-04-14T01:55:03,42.805,6.029,0.028,-0.009,-0.026,103.0,103.0,100.0,13.4,1505.2,327.4,-0.8,1.8,2471.322,13.29,0.029,107.8
2023-04-14T01:58:03,42.805,6.029,0.036,-0.014,0.012,102.0,104.0,101.0,13.4,1505.2,324.7,-0.8,1.8,2471.323,13.29,0.038,111.2
2023-04-14T02:04:03,42.805,6.029,0.049,0.009,-0.003,104.0,103.0,101.0,13.3,1505.2,318.2,-0.8,1.8,2471.399,13.28,0.049,79.6
2023-04-14T02:07:03,42.805,6.029,0.033,-0.027,-0.038,104.0,102.0,102.0,13.4,1505.2,336.9,-0.8,1.8,2471.36,13.28,0.042,129.3
2023-04-14T02:10:03,42.805,6.029,0.008,-0.033,-0.037,103.0,104.0,100.0,13.4,1505.2,332.9,-0.8,1.8,2471.391,13.28,0.033,166.4
2023-04-14T02:13:03,42.805,6.029,0.025,-0.03,-0.053,103.0,102.0,103.0,13.4,1505.2,323.8,-0.8,1.8,2471.377,13.29,0.039,140.2
2023-04-14T02:16:03,42.805,6.029,0.015,-0.028,-0.041,103.0,102.0,102.0,13.4,1505.2,344.7,-0.8,1.8,2471.37,13.29,0.031,151.8
2023-04-14T02:19:03,42.805,6.029,0.026,-0.011,-0.005,104.0,100.0,102.0,13.4,1505.2,336.8,-0.7,1.8,2471.371,13.29,0.028,112.9
2023-04-14T02:22:03,42.805,6.029,0.039,-0.006,-0.022,102.0,102.0,101.0,13.3,1505.2,325.4,-0.8,1.8,2471.388,13.29,0.039,98.7
2023-04-14T02:25:03,42.805,6.029,0.025,-0.022,-0.024,102.0,103.0,101.0,13.3,1505.2,329.2,-0.8,1.8,2471.377,13.29,0.033,131.3
2023-04-14T02:28:03,42.805,6.029,0.002,-0.015,-0.043,103.0,103.0,100.0,13.4,1505.2,323.1,-0.8,1.8,2471.363,13.29,0.015,172.4
2023-04-14T02:31:03,42.805,6.029,0.034,-0.009,-0.018,103.0,103.0,102.0,13.4,1505.2,334.8,-0.8,1.8,2471.361,13.29,0.035,104.8
2023-04-14T02:34:03,42.805,6.029,0.029,-0.018,-0.005,102.0,103.0,100.0,13.4,1505.2,329.9,-0.7,1.8,2471.379,13.29,0.034,121.8
2023-04-14T02:37:03,42.805,6.029,0.04,0.005,-0.007,102.0,102.0,101.0,13.3,1505.2,331.0,-0.7,1.8,2471.358,13.29,0.04,82.9
2023-04-14T02:40:03,42.805,6.029,0.037,-0.01,-0.025,103.0,101.0,101.0,13.4,1505.2,329.8,-0.7,1.8,2471.356,13.29,0.038,105.1
2023-04-14T02:43:03,42.805,6.029,0.028,0.004,0.001,103.0,102.0,101.0,13.3,1505.2,322.4,-0.7,1.8,2471.331,13.29,0.028,81.9
2023-04-14T02:46:03,42.805,6.029,0.021,-0.021,-0.008,102.0,103.0,101.0,13.4,1505.2,337.8,-0.8,1.8,2471.354,13.29,0.029,135.0
2023-04-14T02:49:03,42.805,6.029,0.0,-0.01,-0.012,103.0,102.0,101.0,13.4,1505.2,319.7,-0.8,1.8,2471.392,13.29,0.01,180.0
2023-04-14T02:52:03,42.805,6.029,0.009,-0.021,-0.024,103.0,103.0,101.0,13.4,1505.2,333.9,-0.8,1.8,2471.301,13.29,0.022,156.8
2023-04-14T02:55:03,42.805,6.029,0.021,-0.011,-0.012,103.0,102.0,101.0,13.3,1505.2,335.1,-0.8,1.8,2471.336,13.29,0.023,117.6
2023-04-14T02:58:03,42.805,6.029,0.034,-0.004,0.003,103.0,102.0,102.0,13.3,1505.2,332.4,-0.8,1.8,2471.324,13.29,0.034,96.7
2023-04-14T03:04:03,42.805,6.029,0.013,0.011,-0.009,102.0,103.0,101.0,13.4,1505.2,319.8,-0.8,1.8,2471.427,13.28,0.017,49.8
2023-04-14T03:07:03,42.805,6.029,0.027,-0.001,-0.013,104.0,103.0,101.0,13.3,1505.2,324.2,-0.8,1.9,2471.375,13.28,0.027,92.1
2023-04-14T03:10:03,42.805,6.029,0.028,-0.017,-0.001,102.0,102.0,101.0,13.3,1505.2,340.4,-0.7,1.8,2471.359,13.28,0.032,121.3
2023-04-14T03:13:03,42.805,6.029,0.009,0.0,-0.044,104.0,103.0,101.0,13.4,1505.2,320.3,-0.8,1.8,2471.38,13.29,0.009,90.0
2023-04-14T03:16:03,42.805,6.029,0.051,-0.014,-0.021,102.0,104.0,101.0,13.4,1505.2,320.8,-0.8,1.8,2471.397,13.29,0.052,105.3
2023-04-14T03:19:03,42.805,6.029,0.039,-0.003,-0.018,102.0,104.0,101.0,13.4,1505.2,331.0,-0.8,1.8,2471.377,13.29,0.039,94.4
2023-04-14T03:22:03,42.805,6.029,0.037,-0.014,-0.031,101.0,103.0,101.0,13.4,1505.2,326.5,-0.8,1.8,2471.384,13.29,0.039,110.7
2023-04-14T03:25:03,42.805,6.029,0.027,0.004,-0.018,103.0,102.0,101.0,13.4,1505.2,320.8,-0.8,1.8,2471.333,13.29,0.027,81.6
2023-04-14T03:28:03,42.805,6.029,0.026,0.008,-0.001,103.0,102.0,101.0,13.3,1505.2,326.3,-0.8,1.8,2471.343,13.29,0.027,72.9
2023-04-14T03:31:03,42.805,6.029,0.038,0.003,0.001,104.0,102.0,101.0,13.4,1505.2,334.8,-0.7,1.8,2471.335,13.29,0.038,85.5
2023-04-14T03:34:03,42.805,6.029,0.019,-0.018,-0.037,102.0,104.0,101.0,13.4,1505.2,340.8,-0.7,1.8,2471.353,13.29,0.026,133.5
2023-04-14T03:37:03,42.805,6.029,0.035,-0.009,-0.023,102.0,102.0,101.0,13.4,1505.2,340.3,-0.8,1.8,2471.319,13.29,0.036,104.4
2023-04-14T03:40:03,42.805,6.029,0.018,-0.011,-0.03,102.0,103.0,101.0,13.4,1505.2,332.2,-0.8,1.8,2471.345,13.29,0.021,121.4
2023-04-14T03:43:03,42.805,6.029,0.036,-0.012,0.0,103.0,103.0,101.0,13.3,1505.2,330.5,-0.8,1.8,2471.339,13.29,0.037,108.4
2023-04-14T03:46:03,42.805,6.029,0.018,-0.007,-0.021,103.0,103.0,101.0,13.3,1505.2,336.1,-0.8,1.8,2471.331,13.29,0.019,111.2
2023-04-14T03:49:03,42.805,6.029,0.017,-0.024,-0.046,103.0,102.0,101.0,13.4,1505.2,324.9,-0.7,1.8,2471.308,13.29,0.029,144.7
2023-04-14T03:52:03,42.805,6.029,0.021,-0.004,-0.042,104.0,102.0,101.0,13.4,1505.2,325.3,-0.7,1.8,2471.338,13.29,0.021,100.8
2023-04-14T03:55:03,42.805,6.029,0.028,-0.029,-0.015,103.0,102.0,102.0,13.4,1505.2,335.2,-0.8,1.9,2471.346,13.29,0.04,136.0
2023-04-14T03:58:03,42.805,6.029,0.028,-0.015,-0.014,103.0,103.0,102.0,13.4,1505.2,337.6,-0.8,1.8,2471.367,13.29,0.031,118.2
2023-04-14T04:04:03,42.805,6.029,0.038,0.003,0.006,103.0,104.0,102.0,13.4,1505.2,329.3,-0.8,1.8,2471.418,13.28,0.038,85.5
2023-04-14T04:07:03,42.805,6.029,-0.011,-0.007,-0.035,103.0,104.0,101.0,13.4,1505.2,340.9,-0.8,1.8,2471.42,13.28,0.013,237.5
2023-04-14T04:10:03,42.805,6.029,0.017,-0.01,-0.031,105.0,103.0,101.0,13.3,1505.2,316.8,-0.8,1.8,2471.375,13.28,0.019,120.5
2023-04-14T04:13:03,42.805,6.029,0.046,-0.005,0.009,103.0,103.0,101.0,13.4,1505.2,332.9,-0.8,1.8,2471.376,13.29,0.046,96.2
2023-04-14T04:16:03,42.805,6.029,0.012,-0.004,-0.042,103.0,103.0,102.0,13.4,1505.2,336.1,-0.7,1.8,2471.383,13.29,0.012,108.4
2023-04-14T04:19:03,42.805,6.029,0.025,0.003,-0.02,104.0,102.0,101.0,13.4,1505.2,330.9,-0.8,1.8,2471.368,13.29,0.025,83.2
2023-04-14T04:22:03,42.805,6.029,0.044,-0.024,-0.012,104.0,103.0,101.0,13.4,1505.2,325.1,-0.7,1.8,2471.352,13.29,0.05,118.6
2023-04-14T04:25:03,42.805,6.029,0.041,-0.028,-0.025,103.0,102.0,101.0,13.4,1505.2,340.6,-0.7,1.8,2471.358,13.29,0.049,124.3
2023-04-14T04:28:03,42.805,6.029,0.029,0.006,-0.003,103.0,103.0,101.0,13.4,1505.2,328.6,-0.8,1.8,2471.352,13.29,0.029,78.3
2023-04-14T04:31:03,42.805,6.029,0.024,-0.019,-0.036,102.0,103.0,102.0,13.4,1505.2,333.4,-0.7,1.8,2471.34,13.29,0.03,128.4
2023-04-14T04:34:03,42.805,6.029,0.033,-0.012,0.018,103.0,101.0,101.0,13.4,1505.2,342.2,-0.8,1.8,2471.348,13.29,0.035,110.0
2023-04-14T04:37:03,42.805,6.029,0.035,-0.008,-0.018,103.0,103.0,101.0,13.3,1505.2,324.6,-0.8,1.8,2471.331,13.29,0.035,102.9
2023-04-14T04:40:03,42.805,6.029,0.03,-0.012,-0.007,102.0,103.0,101.0,13.3,1505.2,339.6,-0.7,1.8,2471.326,13.29,0.032,111.8
2023-04-14T04:43:03,42.805,6.029,0.028,-0.022,-0.011,102.0,103.0,100.0,13.4,1505.2,344.2,-0.8,1.8,2471.313,13.29,0.035,128.2
2023-04-14T04:46:03,42.805,6.029,0.028,0.003,-0.023,103.0,102.0,101.0,13.4,1505.2,336.9,-0.7,1.8,2471.33,13.29,0.028,83.9
2023-04-14T04:49:03,42.805,6.029,0.053,-0.006,-0.004,103.0,103.0,102.0,13.3,1505.2,330.7,-0.8,1.8,2471.321,13.29,0.053,96.5
2023-04-14T04:52:03,42.805,6.029,0.019,0.002,-0.017,103.0,103.0,101.0,13.4,1505.2,338.3,-0.8,1.8,2471.342,13.29,0.019,84.0
2023-04-14T04:55:03,42.805,6.029,0.02,-0.007,-0.042,105.0,103.0,101.0,13.4,1505.2,341.9,-0.8,1.8,2471.319,13.29,0.021,109.3
2023-04-14T04:58:03,42.805,6.029,-0.006,0.007,-0.002,103.0,103.0,101.0,13.3,1505.2,338.2,-0.8,1.8,2471.315,13.29,0.009,319.4
2023-04-14T05:04:03,42.805,6.029,0.004,-0.007,-0.001,103.0,104.0,101.0,13.4,1505.2,327.9,-0.8,1.8,2471.357,13.28,0.008,150.3
2023-04-14T05:07:03,42.805,6.029,0.024,-0.024,-0.03,101.0,103.0,101.0,13.4,1505.2,324.9,-0.8,1.8,2471.331,13.28,0.033,135.0
2023-04-14T05:10:03,42.805,6.029,0.014,-0.018,-0.025,103.0,104.0,99.0,13.4,1505.2,322.5,-0.7,1.8,2471.372,13.28,0.022,142.1
2023-04-14T05:13:03,42.805,6.029,0.031,-0.034,-0.022,103.0,104.0,100.0,13.3,1505.2,339.5,-0.8,1.8,2471.349,13.29,0.046,137.6
2023-04-14T05:16:03,42.805,6.029,0.047,-0.033,-0.038,103.0,102.0,102.0,13.3,1505.2,326.7,-0.7,1.8,2471.332,13.29,0.057,125.1
2023-04-14T05:19:03,42.805,6.029,0.018,-0.029,-0.044,100.0,103.0,101.0,13.4,1505.2,343.1,-0.8,1.8,2471.31,13.29,0.034,148.2
2023-04-14T05:22:03,42.805,6.029,0.017,-0.022,-0.055,102.0,104.0,100.0,13.4,1505.2,331.6,-0.8,1.8,2471.326,13.29,0.027,142.3
2023-04-14T05:25:03,42.805,6.029,0.022,0.008,-0.009,103.0,102.0,101.0,13.3,1505.2,323.8,-0.8,1.8,2471.351,13.29,0.023,70.0
2023-04-14T05:28:03,42.805,6.029,0.044,-0.05,-0.045,103.0,103.0,100.0,13.3,1505.2,332.9,-0.7,1.8,2471.304,13.29,0.066,138.7
2023-04-14T05:31:03,42.805,6.029,0.017,-0.015,-0.004,102.0,102.0,101.0,13.4,1505.2,325.5,-0.8,1.8,2471.317,13.29,0.022,131.4
2023-04-14T05:34:03,42.805,6.029,0.042,-0.017,-0.028,104.0,99.0,102.0,13.3,1505.2,324.7,-0.8,1.8,2471.317,13.29,0.045,112.0
2023-04-14T05:37:03,42.805,6.029,0.008,-0.026,-0.019,103.0,102.0,101.0,13.4,1505.2,339.3,-0.8,1.9,2471.329,13.29,0.027,162.9
2023-04-14T05:40:03,42.805,6.029,0.023,-0.01,-0.033,102.0,101.0,101.0,13.4,1505.2,322.4,-0.8,1.8,2471.311,13.29,0.025,113.5
2023-04-14T05:43:03,42.805,6.029,0.049,-0.001,-0.007,103.0,103.0,101.0,13.4,1505.2,330.2,-0.8,1.8,2471.317,13.29,0.049,91.2
2023-04-14T05:46:03,42.805,6.029,0.013,-0.009,-0.045,102.0,103.0,100.0,13.3,1505.2,329.5,-0.8,1.8,2471.268,13.29,0.015,124.7
2023-04-14T05:49:03,42.805,6.029,0.018,-0.004,-0.007,102.0,102.0,100.0,13.4,1505.2,328.0,-0.8,1.8,2471.293,13.29,0.018,102.5
2023-04-14T05:52:03,42.805,6.029,0.024,-0.017,-0.004,102.0,103.0,101.0,13.4,1505.2,322.7,-0.7,1.8,2471.309,13.29,0.029,125.3
2023-04-14T05:55:03,42.805,6.029,0.005,-0.034,-0.065,103.0,103.0,102.0,13.4,1505.2,342.9,-0.8,1.8,2471.286,13.29,0.034,171.6
2023-04-14T05:58:03,42.805,6.029,0.032,-0.011,-0.036,103.0,102.0,100.0,13.3,1505.2,321.3,-0.8,1.8,2471.334,13.29,0.033,109.0
2023-04-14T06:04:03,42.805,6.029,0.0,0.014,-0.026,103.0,103.0,101.0,13.4,1505.2,318.9,-0.8,1.8,2471.382,13.28,0.014,0.0
2023-04-14T06:07:03,42.805,6.029,0.052,-0.018,0.0,102.0,101.0,102.0,13.4,1505.2,334.2,-0.7,1.8,2471.32,13.28,0.055,109.1
2023-04-14T06:10:03,42.805,6.029,0.006,-0.007,-0.011,102.0,103.0,101.0,13.3,1505.2,334.9,-0.8,1.8,2471.347,13.29,0.009,139.4
2023-04-14T06:13:03,42.805,6.029,0.028,0.007,-0.021,105.0,102.0,100.0,13.3,1505.2,323.4,-0.8,1.8,2471.297,13.29,0.028,76.0
2023-04-14T06:16:03,42.805,6.029,0.03,-0.046,-0.072,103.0,103.0,99.0,13.3,1505.2,332.4,-0.8,1.8,2471.273,13.29,0.054,146.9
2023-04-14T06:19:03,42.805,6.029,0.032,-0.011,-0.018,104.0,103.0,100.0,13.4,1505.2,336.9,-0.8,1.8,2471.29,13.29,0.033,109.0
2023-04-14T06:22:03,42.805,6.029,0.029,-0.034,-0.034,102.0,103.0,101.0,13.4,1505.2,337.9,-0.8,1.8,2471.297,13.29,0.044,139.5
2023-04-14T06:25:03,42.805,6.029,0.037,-0.036,-0.047,101.0,103.0,101.0,13.4,1505.2,339.2,-0.8,1.8,2471.315,13.29,0.051,134.2
2023-04-14T06:28:03,42.805,6.029,0.065,0.001,-0.021,102.0,103.0,101.0,13.4,1505.2,318.3,-0.8,1.8,2471.291,13.29,0.065,89.1
2023-04-14T06:31:03,42.805,6.029,0.021,-0.016,-0.045,103.0,104.0,100.0,13.4,1505.2,329.2,-0.8,1.8,2471.319,13.29,0.026,127.3
2023-04-14T06:34:03,42.805,6.029,0.042,-0.015,-0.01,104.0,102.0,101.0,13.4,1505.2,336.3,-0.8,1.8,2471.292,13.29,0.044,109.6
2023-04-14T06:37:03,42.805,6.029,0.029,-0.01,-0.006,103.0,103.0,101.0,13.4,1505.2,342.5,-0.8,1.8,2471.3,13.29,0.03,109.0
2023-04-14T06:40:03,42.805,6.029,0.023,-0.008,-0.016,102.0,102.0,101.0,13.4,1505.2,339.0,-0.7,1.8,2471.311,13.29,0.024,109.2
2023-04-14T06:43:03,42.805,6.029,0.032,-0.003,0.0,102.0,102.0,101.0,13.3,1505.2,328.5,-0.8,1.8,2471.288,13.29,0.032,95.4
2023-04-14T06:46:03,42.805,6.029,0.016,-0.009,-0.019,103.0,102.0,102.0,13.4,1505.2,340.2,-0.7,1.8,2471.311,13.29,0.018,119.4
2023-04-14T06:49:03,42.805,6.029,0.039,-0.006,-0.011,103.0,102.0,101.0,13.3,1505.2,317.5,-0.7,1.8,2471.261,13.29,0.039,98.7
2023-04-14T06:52:03,42.805,6.029,0.0,-0.008,-0.052,104.0,103.0,99.0,13.4,1505.2,325.8,-0.7,1.8,2471.317,13.29,0.008,180.0
2023-04-14T06:55:03,42.805,6.029,0.027,-0.004,-0.015,104.0,102.0,101.0,13.3,1505.2,317.3,-0.8,1.8,2471.283,13.29,0.027,98.4
2023-04-14T06:58:03,42.805,6.029,0.042,0.006,0.011,103.0,102.0,101.0,13.4,1505.2,324.7,-0.8,1.8,2471.285,13.29,0.042,81.9
2023-04-14T07:04:03,42.805,6.029,0.044,-0.014,-0.01,102.0,102.0,101.0,13.3,1505.2,325.0,-0.8,1.8,2471.333,13.28,0.046,107.6
2023-04-14T07:07:03,42.805,6.029,0.03,-0.023,-0.035,102.0,102.0,100.0,13.4,1505.2,340.9,-0.8,1.8,2471.344,13.28,0.037,127.5
2023-04-14T07:10:03,42.805,6.029,0.021,-0.033,-0.072,103.0,102.0,101.0,13.3,1505.2,343.7,-0.7,1.8,2471.34,13.28,0.039,147.5
2023-04-14T07:13:03,42.805,6.029,0.022,-0.027,-0.018,102.0,103.0,100.0,13.4,1505.2,324.6,-0.8,1.8,2471.319,13.29,0.034,140.8
2023-04-14T07:16:03,42.805,6.029,0.018,-0.008,-0.025,102.0,103.0,101.0,13.4,1505.2,335.2,-0.8,1.8,2471.299,13.29,0.019,114.0
2023-04-14T07:19:03,42.805,6.029,0.043,-0.026,-0.023,103.0,103.0,101.0,13.4,1505.2,330.1,-0.8,1.8,2471.311,13.29,0.05,121.2
2023-04-14T07:22:03,42.805,6.029,0.026,-0.002,0.0,103.0,104.0,101.0,13.4,1505.2,331.1,-0.8,1.8,2471.265,13.29,0.026,94.4
2023-04-14T07:25:03,42.805,6.029,0.053,-0.02,-0.019,103.0,102.0,100.0,13.4,1505.2,318.2,-0.8,1.8,2471.307,13.29,0.056,110.7
2023-04-14T07:28:03,42.805,6.029,0.028,-0.015,-0.015,103.0,102.0,101.0,13.4,1505.2,331.9,-0.8,1.8,2471.27,13.29,0.031,118.2
2023-04-14T07:31:03,42.805,6.029,0.035,-0.044,-0.025,102.0,101.0,102.0,13.3,1505.2,341.5,-0.7,1.8,2471.286,13.29,0.056,141.5
2023-04-14T07:34:03,42.805,6.029,0.018,0.0,-0.018,104.0,103.0,102.0,13.4,1505.2,331.1,-0.8,1.8,2471.268,13.29,0.018,90.0
2023-04-14T07:37:03,42.805,6.029,0.032,-0.006,-0.017,102.0,103.0,101.0,13.3,1505.2,323.1,-0.8,1.8,2471.268,13.29,0.032,100.6
2023-04-14T07:40:03,42.805,6.029,0.046,-0.031,-0.036,103.0,102.0,101.0,13.3,1505.2,339.6,-0.8,1.8,2471.253,13.29,0.055,124.0
2023-04-14T07:43:03,42.805,6.029,0.007,-0.018,-0.045,102.0,103.0,101.0,13.4,1505.2,321.4,-0.8,1.8,2471.314,13.29,0.019,158.8
2023-04-14T07:46:03,42.805,6.029,0.02,-0.003,-0.029,103.0,101.0,100.0,13.4,1505.2,326.7,-0.8,1.8,2471.244,13.29,0.02,98.5
2023-04-14T07:49:03,42.805,6.029,0.029,-0.005,0.005,103.0,102.0,101.0,13.3,1505.2,341.5,-0.8,1.8,2471.253,13.29,0.029,99.8
2023-04-14T07:52:03,42.805,6.029,0.023,-0.022,-0.017,103.0,103.0,101.0,13.4,1505.2,334.2,-0.8,1.8,2471.3,13.29,0.031,133.7
2023-04-14T07:55:03,42.805,6.029,0.038,-0.01,-0.034,102.0,103.0,102.0,13.4,1505.2,331.4,-0.7,1.8,2471.282,13.29,0.039,104.7
2023-04-14T07:58:03,42.805,6.029,0.047,-0.029,-0.03,104.0,104.0,100.0,13.4,1505.2,326.8,-0.8,1.8,2471.238,13.29,0.055,121.7
2023-04-14T08:04:03,42.805,6.029,0.021,-0.03,-0.06,102.0,104.0,101.0,13.4,1505.2,335.7,-0.8,1.8,2471.299,13.28,0.036,145.0
2023-04-14T08:07:03,42.805,6.029,0.014,-0.036,-0.08,102.0,103.0,101.0,13.4,1505.2,326.0,-0.8,1.8,2471.318,13.28,0.038,158.8
2023-04-14T08:10:03,42.805,6.029,0.022,-0.045,-0.042,103.0,103.0,100.0,13.4,1505.2,344.4,-0.7,1.8,2471.299,13.28,0.05,153.9
2023-04-14T08:13:03,42.805,6.029,0.035,-0.027,-0.042,103.0,104.0,102.0,13.4,1505.2,336.6,-0.8,1.8,2471.304,13.29,0.044,127.7
2023-04-14T08:16:03,42.805,6.029,0.022,-0.012,-0.027,103.0,102.0,100.0,13.3,1505.2,330.2,-0.8,1.8,2471.306,13.29,0.025,118.6
2023-04-14T08:19:03,42.805,6.029,0.037,-0.019,-0.006,103.0,104.0,101.0,13.4,1505.2,342.5,-0.8,1.8,2471.294,13.29,0.041,117.2
2023-04-14T08:22:03,42.805,6.029,0.026,0.005,-0.006,102.0,102.0,101.0,13.4,1505.2,334.4,-0.8,1.8,2471.266,13.29,0.026,79.1
2023-04-14T08:25:03,42.805,6.029,0.038,-0.011,-0.03,103.0,103.0,101.0,13.4,1505.2,338.5,-0.8,1.8,2471.268,13.29,0.039,106.1
2023-04-14T08:28:03,42.805,6.029,0.01,-0.009,-0.045,103.0,102.0,101.0,13.4,1505.2,320.0,-0.8,1.8,2471.227,13.29,0.013,132.0
2023-04-14T08:31:03,42.805,6.029,0.029,-0.007,-0.017,102.0,103.0,101.0,13.3,1505.2,326.3,-0.8,1.8,2471.251,13.29,0.029,103.6
2023-04-14T08:34:03,42.805,6.029,0.015,-0.004,-0.01,102.0,104.0,101.0,13.4,1505.2,326.5,-0.7,1.8,2471.279,13.29,0.015,104.9
2023-04-14T08:37:03,42.805,6.029,0.043,0.001,-0.018,102.0,103.0,101.0,13.4,1505.2,322.5,-0.8,1.8,2471.27,13.29,0.043,88.7
2023-04-14T08:40:03,42.805,6.029,0.024,-0.01,-0.048,103.0,103.0,101.0,13.4,1505.2,322.9,-0.7,1.8,2471.253,13.29,0.026,112.6
2023-04-14T08:43:03,42.805,6.029,0.041,0.0,-0.026,103.0,103.0,100.0,13.3,1505.2,324.4,-0.8,1.8,2471.251,13.29,0.041,90.0
2023-04-14T08:46:03,42.805,6.029,0.051,-0.034,-0.002,103.0,102.0,101.0,13.3,1505.2,341.5,-0.8,1.8,2471.226,13.29,0.061,123.7
2023-04-14T08:49:03,42.805,6.029,-0.004,-0.003,-0.037,103.0,102.0,101.0,13.4,1505.2,343.4,-0.8,1.8,2471.242,13.29,0.005,233.1
2023-04-14T08:52:03,42.805,6.029,0.026,-0.035,-0.039,103.0,102.0,101.0,13.4,1505.2,341.2,-0.7,1.8,2471.272,13.29,0.043,143.4
2023-04-14T08:55:03,42.805,6.029,0.007,0.01,0.006,103.0,102.0,101.0,13.3,1505.2,332.4,-0.8,1.8,2471.262,13.29,0.012,35.0
2023-04-14T08:58:03,42.805,6.029,0.027,-0.014,0.002,103.0,102.0,100.0,13.3,1505.2,331.0,-0.8,1.8,2471.231,13.29,0.03,117.4
2023-04-14T09:04:03,42.805,6.029,0.025,-0.026,-0.036,102.0,103.0,102.0,13.4,1505.2,328.2,-0.8,1.8,2471.297,13.28,0.036,136.1
2023-04-14T09:07:03,42.805,6.029,0.044,-0.033,-0.055,103.0,102.0,101.0,13.4,1505.2,328.7,-0.7,1.8,2471.25,13.28,0.055,126.9
2023-04-14T09:10:03,42.805,6.029,0.017,-0.014,0.019,103.0,102.0,101.0,13.4,1505.2,324.6,-0.8,1.8,2471.323,13.28,0.022,129.5
2023-04-14T09:13:03,42.805,6.029,0.056,-0.025,-0.031,101.0,102.0,102.0,13.4,1505.2,339.7,-0.8,1.8,2471.261,13.29,0.061,114.1
2023-04-14T09:16:03,42.805,6.029,0.04,-0.021,0.002,102.0,102.0,101.0,13.4,1505.2,330.6,-0.8,1.8,2471.256,13.29,0.045,117.7
2023-04-14T09:19:03,42.805,6.029,0.009,0.0,0.008,101.0,103.0,100.0,13.4,1505.2,341.5,-0.8,1.8,2471.269,13.29,0.009,90.0
2023-04-14T09:22:03,42.805,6.029,0.018,0.017,0.005,102.0,102.0,102.0,13.4,1505.2,316.8,-0.8,1.8,2471.27,13.29,0.024,46.6
2023-04-14T09:25:03,42.805,6.029,0.033,-0.021,-0.042,105.0,101.0,102.0,13.3,1505.2,336.2,-0.7,1.8,2471.245,13.29,0.039,122.5
2023-04-14T09:28:03,42.805,6.029,0.039,-0.009,-0.004,102.0,102.0,101.0,13.4,1505.2,339.4,-0.8,1.8,2471.266,13.29,0.04,103.0
2023-04-14T09:31:03,42.805,6.029,0.014,-0.006,-0.041,102.0,104.0,101.0,13.4,1505.2,337.9,-0.7,1.8,2471.235,13.29,0.015,113.2
2023-04-14T09:34:03,42.805,6.029,0.0,-0.02,-0.053,103.0,103.0,101.0,13.4,1505.2,330.6,-0.8,1.8,2471.249,13.29,0.02,180.0
2023-04-14T09:37:03,42.805,6.029,0.037,-0.017,-0.034,103.0,102.0,100.0,13.4,1505.2,331.9,-0.8,1.8,2471.258,13.29,0.04,114.7
2023-04-14T09:40:03,42.805,6.029,0.034,-0.003,0.012,102.0,101.0,101.0,13.3,1505.2,326.3,-0.7,1.8,2471.209,13.29,0.034,95.0
2023-04-14T09:43:03,42.805,6.029,0.043,-0.01,0.003,102.0,103.0,101.0,13.4,1505.2,330.6,-0.8,1.8,2471.236,13.29,0.044,103.1
2023-04-14T09:46:03,42.805,6.029,0.003,-0.019,-0.04,101.0,102.0,101.0,13.4,1505.2,345.4,-0.8,1.8,2471.316,13.29,0.019,171.0
2023-04-14T09:49:03,42.805,6.029,0.018,-0.004,-0.026,103.0,102.0,101.0,13.4,1505.2,317.4,-0.7,1.8,2471.229,13.29,0.018,102.5
2023-04-14T09:52:03,42.805,6.029,0.031,0.004,-0.022,103.0,102.0,100.0,13.4,1505.2,331.3,-0.8,1.8,2471.224,13.29,0.031,82.7
2023-04-14T09:55:03,42.805,6.029,0.041,-0.013,-0.022,102.0,102.0,101.0,13.3,1505.2,335.7,-0.8,1.8,2471.304,13.29,0.043,107.6